AAL2596 KJFK-TAPA

Flight info

Callsign AAL2596
Flight time 3h 47m
Altitude 37000
Route SHIPP Y492 SQUAD/M079F370 DCT DARUX L456 HANCY/N0460F370 L456 THANK DCT ELOPO
Aircraft B738/M-SDE2E3FGHIRWXY/LB1

Departure

Time 2026-04-26 19:50
Airport John F. Kennedy International Airport (KJFK)

Arrival

Time 2026-04-26 23:37
Airport V. C. Bird International Airport (TAPA)
Time Latitude Longitude Altitude Speed Heading
2026-04-26 19:00 40.64809 -73.79283 23 ft 0 kts 150°
2026-04-26 19:34 40.64828 -73.79298 23 ft 4 kts 150°
2026-04-26 19:34 40.64847 -73.79312 25 ft 4 kts 153°
2026-04-26 19:34 40.64868 -73.79319 24 ft 4 kts 214°
2026-04-26 19:34 40.64883 -73.79295 24 ft 4 kts 240°
2026-04-26 19:35 40.64887 -73.79285 24 ft 0 kts 240°
2026-04-26 19:37 40.64884 -73.79292 24 ft 3 kts 240°
2026-04-26 19:38 40.64856 -73.79357 24 ft 11 kts 241°
2026-04-26 19:38 40.64818 -73.79446 25 ft 11 kts 240°
2026-04-26 19:38 40.64781 -73.79534 23 ft 11 kts 242°
2026-04-26 19:38 40.64744 -73.79619 24 ft 10 kts 240°
2026-04-26 19:39 40.64721 -73.79674 23 ft 10 kts 240°
2026-04-26 19:39 40.64663 -73.79704 23 ft 10 kts 158°
2026-04-26 19:39 40.64606 -73.79655 24 ft 10 kts 144°
2026-04-26 19:39 40.64548 -73.79610 24 ft 10 kts 161°
2026-04-26 19:40 40.64473 -73.79596 27 ft 13 kts 175°
2026-04-26 19:40 40.64364 -73.79593 25 ft 17 kts 182°
2026-04-26 19:40 40.64250 -73.79602 23 ft 16 kts 183°
2026-04-26 19:40 40.64140 -73.79609 28 ft 16 kts 180°
2026-04-26 19:41 40.64039 -73.79572 23 ft 15 kts 149°
2026-04-26 19:41 40.63970 -73.79477 23 ft 14 kts 122°
2026-04-26 19:41 40.63919 -73.79368 20 ft 14 kts 121°
2026-04-26 19:41 40.63888 -73.79297 19 ft 13 kts 120°
2026-04-26 19:42 40.63827 -73.79160 22 ft 13 kts 120°
2026-04-26 19:42 40.63783 -73.79061 21 ft 12 kts 121°
2026-04-26 19:42 40.63740 -73.78967 23 ft 12 kts 121°
2026-04-26 19:42 40.63697 -73.78873 25 ft 12 kts 121°
2026-04-26 19:43 40.63656 -73.78782 26 ft 11 kts 120°
2026-04-26 19:43 40.63616 -73.78693 27 ft 11 kts 121°
2026-04-26 19:43 40.63576 -73.78606 26 ft 11 kts 121°
2026-04-26 19:43 40.63537 -73.78520 27 ft 12 kts 121°
2026-04-26 19:44 40.63486 -73.78409 27 ft 16 kts 121°
2026-04-26 19:44 40.63422 -73.78270 27 ft 18 kts 121°
2026-04-26 19:44 40.63359 -73.78129 27 ft 18 kts 120°
2026-04-26 19:44 40.63312 -73.78004 29 ft 12 kts 145°
2026-04-26 19:45 40.63231 -73.78009 29 ft 12 kts 190°
2026-04-26 19:45 40.63150 -73.78021 26 ft 12 kts 187°
2026-04-26 19:45 40.63076 -73.78065 26 ft 12 kts 211°
2026-04-26 19:45 40.63005 -73.78121 24 ft 12 kts 210°
2026-04-26 19:46 40.62932 -73.78177 24 ft 13 kts 210°
2026-04-26 19:46 40.62842 -73.78247 22 ft 16 kts 211°
2026-04-26 19:46 40.62745 -73.78323 28 ft 16 kts 210°
2026-04-26 19:46 40.62652 -73.78396 27 ft 15 kts 211°
2026-04-26 19:47 40.62563 -73.78466 27 ft 15 kts 211°
2026-04-26 19:47 40.62505 -73.78510 29 ft 14 kts 210°
2026-04-26 19:47 40.62395 -73.78597 29 ft 13 kts 211°
2026-04-26 19:47 40.62317 -73.78658 29 ft 13 kts 210°
2026-04-26 19:48 40.62245 -73.78618 28 ft 13 kts 123°
2026-04-26 19:48 40.62228 -73.78541 26 ft 5 kts 58°
2026-04-26 19:48 40.62247 -73.78523 26 ft 0 kts 30°
2026-04-26 19:49 40.62256 -73.78516 26 ft 6 kts 30°
2026-04-26 19:49 40.62454 -73.78362 28 ft 65 kts 31°
2026-04-26 19:49 40.63024 -73.77918 27 ft 122 kts 31°
2026-04-26 19:50 40.63891 -73.77239 42 ft 164 kts 31°
2026-04-26 19:50 40.64889 -73.76458 614 ft 160 kts 34°
2026-04-26 19:50 40.65668 -73.75439 1250 ft 163 kts 63°
2026-04-26 19:50 40.65934 -73.73907 1521 ft 188 kts 84°
2026-04-26 19:51 40.66050 -73.72090 1719 ft 211 kts 88°
2026-04-26 19:51 40.65576 -73.70151 1939 ft 241 kts 125°
2026-04-26 19:51 40.64393 -73.68513 2495 ft 251 kts 131°
2026-04-26 19:51 40.63152 -73.66879 3180 ft 253 kts 130°
2026-04-26 19:52 40.61913 -73.65229 3886 ft 255 kts 130°
2026-04-26 19:52 40.60660 -73.63536 4519 ft 260 kts 130°
2026-04-26 19:52 40.59399 -73.61809 5194 ft 263 kts 130°
2026-04-26 19:52 40.58131 -73.60053 5850 ft 266 kts 130°
2026-04-26 19:53 40.56847 -73.58270 6490 ft 270 kts 130°
2026-04-26 19:53 40.55551 -73.56459 7154 ft 274 kts 130°
2026-04-26 19:53 40.54237 -73.54621 7828 ft 278 kts 130°
2026-04-26 19:53 40.52910 -73.52757 8514 ft 281 kts 130°
2026-04-26 19:54 40.51565 -73.50869 9193 ft 285 kts 130°
2026-04-26 19:54 40.50200 -73.48955 9866 ft 289 kts 131°
2026-04-26 19:54 40.48808 -73.46997 10339 ft 301 kts 131°
2026-04-26 19:54 40.47342 -73.44931 10492 ft 324 kts 131°
2026-04-26 19:55 40.45752 -73.42689 10664 ft 346 kts 131°
2026-04-26 19:55 40.44060 -73.40315 10888 ft 364 kts 132°
2026-04-26 19:55 40.42311 -73.37865 11400 ft 371 kts 132°
2026-04-26 19:55 40.40529 -73.35373 12005 ft 376 kts 132°
2026-04-26 19:56 40.38726 -73.32849 12612 ft 381 kts 132°
2026-04-26 19:56 40.36902 -73.30297 13246 ft 385 kts 133°
2026-04-26 19:56 40.35057 -73.27717 13886 ft 389 kts 133°
2026-04-26 19:56 40.33202 -73.25106 14495 ft 394 kts 131°
2026-04-26 19:57 40.31539 -73.22241 15128 ft 398 kts 122°
2026-04-26 19:57 40.30068 -73.19181 15741 ft 403 kts 121°
2026-04-26 19:57 40.28576 -73.16051 16352 ft 407 kts 122°
2026-04-26 19:57 40.27042 -73.12903 16952 ft 411 kts 123°
2026-04-26 19:58 40.25476 -73.09744 17515 ft 417 kts 123°
2026-04-26 19:58 40.23882 -73.06552 18089 ft 420 kts 123°
2026-04-26 19:58 40.22274 -73.03330 18644 ft 425 kts 123°
2026-04-26 19:58 40.20652 -73.00082 19189 ft 429 kts 123°
2026-04-26 19:59 40.19011 -72.96798 19722 ft 432 kts 123°
2026-04-26 19:59 40.17360 -72.93496 20292 ft 434 kts 124°
2026-04-26 19:59 40.15718 -72.90214 20795 ft 438 kts 124°
2026-04-26 19:59 40.14044 -72.86869 21300 ft 441 kts 124°
2026-04-26 20:00 40.12355 -72.83498 21752 ft 445 kts 124°
2026-04-26 20:00 40.10648 -72.80097 22231 ft 448 kts 124°
2026-04-26 20:00 40.08969 -72.76647 22696 ft 451 kts 122°
2026-04-26 20:00 40.07362 -72.73112 23149 ft 454 kts 121°
2026-04-26 20:01 40.05775 -72.69535 23568 ft 457 kts 121°
2026-04-26 20:01 40.04170 -72.65923 23991 ft 460 kts 122°
2026-04-26 20:01 40.02548 -72.62309 24395 ft 463 kts 122°
2026-04-26 20:01 40.00924 -72.58723 24783 ft 465 kts 123°
2026-04-26 20:02 39.99266 -72.55083 25139 ft 469 kts 123°
2026-04-26 20:02 39.97594 -72.51422 25496 ft 472 kts 124°
2026-04-26 20:02 39.95916 -72.47728 25833 ft 475 kts 123°
2026-04-26 20:02 39.94816 -72.45254 26050 ft 477 kts 123°
2026-04-26 20:03 39.92606 -72.40208 26490 ft 480 kts 123°
2026-04-26 20:03 39.90950 -72.36411 26805 ft 483 kts 123°
2026-04-26 20:03 39.89283 -72.32602 27102 ft 486 kts 124°
2026-04-26 20:03 39.87602 -72.28773 27427 ft 488 kts 124°
2026-04-26 20:04 39.85913 -72.24930 27709 ft 491 kts 124°
2026-04-26 20:04 39.84206 -72.21066 28024 ft 493 kts 125°
2026-04-26 20:04 39.82489 -72.17194 28301 ft 495 kts 125°
2026-04-26 20:04 39.80785 -72.13350 28582 ft 498 kts 125°
2026-04-26 20:05 39.79050 -72.09444 28843 ft 500 kts 126°
2026-04-26 20:05 39.77282 -72.05464 29101 ft 503 kts 126°
2026-04-26 20:05 39.75529 -72.01519 29371 ft 505 kts 126°
2026-04-26 20:05 39.73769 -71.97580 29727 ft 504 kts 127°
2026-04-26 20:06 39.72005 -71.93731 30091 ft 502 kts 128°
2026-04-26 20:06 39.70197 -71.89860 30466 ft 500 kts 128°
2026-04-26 20:06 39.68384 -71.85998 30804 ft 500 kts 128°
2026-04-26 20:06 39.66573 -71.82140 31154 ft 499 kts 128°
2026-04-26 20:07 39.64771 -71.78297 31531 ft 497 kts 128°
2026-04-26 20:07 39.62977 -71.74467 31838 ft 497 kts 128°
2026-04-26 20:07 39.61180 -71.70630 32107 ft 497 kts 128°
2026-04-26 20:07 39.59381 -71.66796 32418 ft 497 kts 128°
2026-04-26 20:08 39.57590 -71.62978 32756 ft 495 kts 128°
2026-04-26 20:08 39.55800 -71.59163 33082 ft 494 kts 129°
2026-04-26 20:08 39.54019 -71.55371 33393 ft 492 kts 129°
2026-04-26 20:08 39.52236 -71.51584 33692 ft 492 kts 129°
2026-04-26 20:09 39.50474 -71.47845 33911 ft 492 kts 129°
2026-04-26 20:09 39.48691 -71.44065 34166 ft 492 kts 129°
2026-04-26 20:09 39.46904 -71.40283 34415 ft 492 kts 129°
2026-04-26 20:09 39.45096 -71.36533 34675 ft 488 kts 133°
2026-04-26 20:10 39.42931 -71.33236 34904 ft 474 kts 145°
2026-04-26 20:10 39.40397 -71.30603 35123 ft 463 kts 155°
2026-04-26 20:10 39.37626 -71.28589 35364 ft 450 kts 166°
2026-04-26 20:10 39.34736 -71.27102 35631 ft 446 kts 167°
2026-04-26 20:11 39.31837 -71.25644 35766 ft 448 kts 167°
2026-04-26 20:11 39.28915 -71.24171 35849 ft 451 kts 166°
2026-04-26 20:11 39.26025 -71.22700 36071 ft 451 kts 166°
2026-04-26 20:12 39.20209 -71.19701 36542 ft 450 kts 166°
2026-04-26 20:12 39.17296 -71.18193 36688 ft 451 kts 166°
2026-04-26 20:12 39.14393 -71.16686 36979 ft 448 kts 166°
2026-04-26 20:12 39.11510 -71.15189 37206 ft 447 kts 166°
2026-04-26 20:13 39.08611 -71.13689 37187 ft 449 kts 166°
2026-04-26 20:13 39.02825 -71.10697 37180 ft 446 kts 166°
2026-04-26 20:14 38.97099 -71.07737 37171 ft 442 kts 166°
2026-04-26 20:14 38.91397 -71.04800 37180 ft 441 kts 166°
2026-04-26 20:15 38.85702 -71.01874 37172 ft 441 kts 166°
2026-04-26 20:15 38.80013 -70.98955 37180 ft 441 kts 166°
2026-04-26 20:16 38.74344 -70.96051 37180 ft 441 kts 166°
2026-04-26 20:16 38.68631 -70.93129 37172 ft 442 kts 166°
2026-04-26 20:17 38.62918 -70.90210 37178 ft 443 kts 166°
2026-04-26 20:17 38.57183 -70.87287 37180 ft 444 kts 166°
2026-04-26 20:18 38.51435 -70.84359 37180 ft 445 kts 166°
2026-04-26 20:18 38.45671 -70.81434 37175 ft 446 kts 166°
2026-04-26 20:19 38.39923 -70.78519 37176 ft 447 kts 166°
2026-04-26 20:19 38.34123 -70.75581 37176 ft 449 kts 166°
2026-04-26 20:20 38.28315 -70.72644 37180 ft 449 kts 166°
2026-04-26 20:20 38.22505 -70.69712 37166 ft 449 kts 166°
2026-04-26 20:21 38.16686 -70.66781 37177 ft 449 kts 166°
2026-04-26 20:21 38.10869 -70.63855 37176 ft 449 kts 166°
2026-04-26 20:22 38.05059 -70.60937 37175 ft 449 kts 166°
2026-04-26 20:22 37.99262 -70.58011 37176 ft 450 kts 163°
2026-04-26 20:23 37.93613 -70.54605 37162 ft 453 kts 160°
2026-04-26 20:23 37.88001 -70.50972 37164 ft 453 kts 160°
2026-04-26 20:24 37.82386 -70.47370 37164 ft 452 kts 160°
2026-04-26 20:24 37.76762 -70.43822 37167 ft 451 kts 161°
2026-04-26 20:25 37.71137 -70.40302 37158 ft 452 kts 161°
2026-04-26 20:25 37.65502 -70.36787 37157 ft 452 kts 161°
2026-04-26 20:26 37.59864 -70.33271 37158 ft 451 kts 161°
2026-04-26 20:26 37.55185 -70.30358 37159 ft 452 kts 161°
2026-04-26 20:27 37.48629 -70.26283 37156 ft 452 kts 161°
2026-04-26 20:27 37.43940 -70.23373 37158 ft 452 kts 161°
2026-04-26 20:28 37.38297 -70.19875 37157 ft 452 kts 161°
2026-04-26 20:28 37.32657 -70.16387 37159 ft 451 kts 161°
2026-04-26 20:29 37.27023 -70.12908 37157 ft 451 kts 161°
2026-04-26 20:29 37.21380 -70.09430 37156 ft 452 kts 161°
2026-04-26 20:30 37.15733 -70.05953 37157 ft 451 kts 161°
2026-04-26 20:30 37.10092 -70.02484 37144 ft 451 kts 161°
2026-04-26 20:31 37.04485 -69.99046 37148 ft 451 kts 161°
2026-04-26 20:31 36.98853 -69.95598 37146 ft 451 kts 161°
2026-04-26 20:32 36.93220 -69.92153 37144 ft 450 kts 161°
2026-04-26 20:32 36.87582 -69.88711 37139 ft 450 kts 161°
2026-04-26 20:33 36.81985 -69.85300 37136 ft 450 kts 161°
2026-04-26 20:33 36.76354 -69.81875 37139 ft 449 kts 161°
2026-04-26 20:34 36.70731 -69.78461 37138 ft 450 kts 161°
2026-04-26 20:34 36.65103 -69.75050 37137 ft 450 kts 161°
2026-04-26 20:35 36.59471 -69.71640 37138 ft 449 kts 161°
2026-04-26 20:35 36.53850 -69.68241 37142 ft 449 kts 161°
2026-04-26 20:36 36.48228 -69.64849 37138 ft 449 kts 161°
2026-04-26 20:36 36.42645 -69.61483 37138 ft 449 kts 161°
2026-04-26 20:37 36.37019 -69.58100 37137 ft 449 kts 161°
2026-04-26 20:37 36.31400 -69.54725 37139 ft 449 kts 161°
2026-04-26 20:38 36.25777 -69.51352 37139 ft 449 kts 161°
2026-04-26 20:38 36.20138 -69.47975 37139 ft 450 kts 161°
2026-04-26 20:39 36.14429 -69.44955 37119 ft 439 kts 173°
2026-04-26 20:39 36.08495 -69.43350 37120 ft 436 kts 175°
2026-04-26 20:40 36.02559 -69.41822 37117 ft 436 kts 175°
2026-04-26 20:40 35.96622 -69.40260 37119 ft 436 kts 175°
2026-04-26 20:41 35.90727 -69.38683 37117 ft 436 kts 175°
2026-04-26 20:41 35.84798 -69.37088 37121 ft 435 kts 175°
2026-04-26 20:42 35.78884 -69.35499 37118 ft 435 kts 175°
2026-04-26 20:42 35.72971 -69.33914 37120 ft 435 kts 175°
2026-04-26 20:43 35.67058 -69.32328 37120 ft 435 kts 175°
2026-04-26 20:43 35.61140 -69.30748 37120 ft 435 kts 175°
2026-04-26 20:44 35.55253 -69.29178 37121 ft 435 kts 175°
2026-04-26 20:44 35.49298 -69.27592 37119 ft 435 kts 175°
2026-04-26 20:45 35.43412 -69.26025 37121 ft 435 kts 174°
2026-04-26 20:45 35.37499 -69.24452 37123 ft 435 kts 174°
2026-04-26 20:46 35.31579 -69.22884 37120 ft 435 kts 174°
2026-04-26 20:46 35.25648 -69.21315 37113 ft 436 kts 174°
2026-04-26 20:47 35.19717 -69.19746 37112 ft 436 kts 174°
2026-04-26 20:47 35.13777 -69.18178 37110 ft 437 kts 174°
2026-04-26 20:48 35.07837 -69.16612 37109 ft 437 kts 174°
2026-04-26 20:48 35.01891 -69.15047 37114 ft 437 kts 174°
2026-04-26 20:49 34.95946 -69.13484 37113 ft 437 kts 174°
2026-04-26 20:49 34.90034 -69.11932 37120 ft 437 kts 174°
2026-04-26 20:50 34.84074 -69.10371 37124 ft 438 kts 174°
2026-04-26 20:50 34.78113 -69.08811 37119 ft 438 kts 174°
2026-04-26 20:51 34.72151 -69.07252 37094 ft 439 kts 174°
2026-04-26 20:51 34.66183 -69.05696 37082 ft 438 kts 174°
2026-04-26 20:52 34.60221 -69.04142 37083 ft 438 kts 174°
2026-04-26 20:52 34.54297 -69.02601 37079 ft 438 kts 174°
2026-04-26 20:53 34.48341 -69.01053 37073 ft 437 kts 174°
2026-04-26 20:53 34.42378 -68.99506 37082 ft 437 kts 174°
2026-04-26 20:54 34.36431 -68.97965 37083 ft 437 kts 174°
2026-04-26 20:54 34.30480 -68.96425 37087 ft 438 kts 174°
2026-04-26 20:55 34.24523 -68.94887 37081 ft 438 kts 174°
2026-04-26 20:55 34.18594 -68.93357 37091 ft 438 kts 174°
2026-04-26 20:56 34.12623 -68.91819 37082 ft 438 kts 174°
2026-04-26 20:56 34.06656 -68.90285 37084 ft 438 kts 174°
2026-04-26 20:57 34.00688 -68.88758 37083 ft 438 kts 174°
2026-04-26 20:57 33.94717 -68.87231 37081 ft 438 kts 173°
2026-04-26 20:58 33.88784 -68.85716 37087 ft 439 kts 173°
2026-04-26 20:58 33.82810 -68.84192 37081 ft 439 kts 173°
2026-04-26 20:59 33.76827 -68.82668 37086 ft 440 kts 173°
2026-04-26 20:59 33.70821 -68.81141 37084 ft 441 kts 173°
2026-04-26 21:00 33.64820 -68.79616 37084 ft 441 kts 173°
2026-04-26 21:00 33.58812 -68.78093 37083 ft 441 kts 173°
2026-04-26 21:01 33.52798 -68.76570 37085 ft 442 kts 173°
2026-04-26 21:01 33.46779 -68.75046 37081 ft 442 kts 173°
2026-04-26 21:02 33.40761 -68.73525 37083 ft 442 kts 173°
2026-04-26 21:02 33.34739 -68.72006 37084 ft 442 kts 173°
2026-04-26 21:03 33.28714 -68.70490 37082 ft 442 kts 173°
2026-04-26 21:03 33.22696 -68.68975 37082 ft 441 kts 173°
2026-04-26 21:04 33.16731 -68.67477 37081 ft 441 kts 173°
2026-04-26 21:04 33.10729 -68.65971 37083 ft 440 kts 173°
2026-04-26 21:05 33.04732 -68.64469 37083 ft 440 kts 173°
2026-04-26 21:05 32.98738 -68.62970 37082 ft 439 kts 173°
2026-04-26 21:06 32.92753 -68.61475 37085 ft 439 kts 173°
2026-04-26 21:06 32.86762 -68.59981 37080 ft 439 kts 173°
2026-04-26 21:07 32.80777 -68.58490 37085 ft 439 kts 173°
2026-04-26 21:07 32.74825 -68.57011 37083 ft 440 kts 173°
2026-04-26 21:08 32.68828 -68.55520 37085 ft 440 kts 173°
2026-04-26 21:08 32.62826 -68.54032 37082 ft 441 kts 173°
2026-04-26 21:09 32.56817 -68.52545 37095 ft 441 kts 173°
2026-04-26 21:09 32.50799 -68.51056 37091 ft 441 kts 173°
2026-04-26 21:10 32.44817 -68.49576 37087 ft 442 kts 173°
2026-04-26 21:10 32.38792 -68.48089 37082 ft 443 kts 173°
2026-04-26 21:11 32.32754 -68.46600 37073 ft 443 kts 172°
2026-04-26 21:11 32.26714 -68.45114 37073 ft 443 kts 172°
2026-04-26 21:12 32.20679 -68.43633 37071 ft 443 kts 172°
2026-04-26 21:12 32.14640 -68.42151 37075 ft 442 kts 172°
2026-04-26 21:13 32.08614 -68.40673 37072 ft 442 kts 172°
2026-04-26 21:13 32.02584 -68.39197 37075 ft 442 kts 172°
2026-04-26 21:14 31.96605 -68.37737 37084 ft 441 kts 173°
2026-04-26 21:14 31.90589 -68.36269 37084 ft 441 kts 173°
2026-04-26 21:15 31.84581 -68.34804 37082 ft 440 kts 173°
2026-04-26 21:15 31.78581 -68.33343 37084 ft 441 kts 173°
2026-04-26 21:16 31.73585 -68.32129 37083 ft 441 kts 173°
2026-04-26 21:16 31.67568 -68.30667 37080 ft 441 kts 173°
2026-04-26 21:17 31.61551 -68.29208 37084 ft 441 kts 173°
2026-04-26 21:17 31.55528 -68.27750 37081 ft 442 kts 173°
2026-04-26 21:18 31.49510 -68.26293 37084 ft 442 kts 173°
2026-04-26 21:18 31.43486 -68.24839 37079 ft 442 kts 173°
2026-04-26 21:19 31.37454 -68.23383 37075 ft 443 kts 173°
2026-04-26 21:19 31.31418 -68.21928 37074 ft 443 kts 173°
2026-04-26 21:20 31.25403 -68.20480 37074 ft 443 kts 173°
2026-04-26 21:20 31.19354 -68.19025 37074 ft 444 kts 173°
2026-04-26 21:21 31.13297 -68.17571 37073 ft 444 kts 173°
2026-04-26 21:21 31.07232 -68.16115 37074 ft 444 kts 173°
2026-04-26 21:22 31.01172 -68.14665 37076 ft 445 kts 173°
2026-04-26 21:22 30.95108 -68.13215 37072 ft 445 kts 173°
2026-04-26 21:23 30.86053 -68.11049 37075 ft 445 kts 173°
2026-04-26 21:23 30.79989 -68.09602 37071 ft 445 kts 173°
2026-04-26 21:24 30.73915 -68.08156 37076 ft 445 kts 173°
2026-04-26 21:24 30.67845 -68.06713 37072 ft 446 kts 173°
2026-04-26 21:25 30.61768 -68.05269 37076 ft 446 kts 173°
2026-04-26 21:25 30.55681 -68.03824 37074 ft 447 kts 173°
2026-04-26 21:26 30.49591 -68.02382 37074 ft 447 kts 173°
2026-04-26 21:26 30.43493 -68.00939 37075 ft 447 kts 173°
2026-04-26 21:27 30.37393 -67.99495 37074 ft 448 kts 173°
2026-04-26 21:27 30.31318 -67.98062 37076 ft 449 kts 173°
2026-04-26 21:28 30.25189 -67.96616 37073 ft 450 kts 173°
2026-04-26 21:28 30.19050 -67.95172 37072 ft 450 kts 173°
2026-04-26 21:29 30.12902 -67.93726 37075 ft 450 kts 173°
2026-04-26 21:29 30.06784 -67.92286 37075 ft 451 kts 173°
2026-04-26 21:30 30.00634 -67.90844 37074 ft 451 kts 173°
2026-04-26 21:30 29.94480 -67.89403 37074 ft 451 kts 173°
2026-04-26 21:31 29.88321 -67.87961 37072 ft 450 kts 173°
2026-04-26 21:31 29.82181 -67.86526 37073 ft 450 kts 173°
2026-04-26 21:32 29.76084 -67.85103 37065 ft 450 kts 173°
2026-04-26 21:32 29.69941 -67.83671 37063 ft 450 kts 173°
2026-04-26 21:33 29.63808 -67.82243 37064 ft 449 kts 173°
2026-04-26 21:33 29.57683 -67.80818 37065 ft 448 kts 173°
2026-04-26 21:34 29.51568 -67.79396 37067 ft 448 kts 173°
2026-04-26 21:34 29.45453 -67.77979 37063 ft 448 kts 173°
2026-04-26 21:35 29.39348 -67.76567 37066 ft 447 kts 173°
2026-04-26 21:35 29.33245 -67.75155 37064 ft 447 kts 173°
2026-04-26 21:36 29.28168 -67.73980 37065 ft 448 kts 173°
2026-04-26 21:36 29.21021 -67.72328 37062 ft 448 kts 173°
2026-04-26 21:37 29.14946 -67.70930 37068 ft 448 kts 173°
2026-04-26 21:37 29.08823 -67.69520 37064 ft 449 kts 173°
2026-04-26 21:38 29.02689 -67.68109 37064 ft 448 kts 173°
2026-04-26 21:38 28.96571 -67.66704 37064 ft 449 kts 173°
2026-04-26 21:39 28.90495 -67.65308 37063 ft 449 kts 173°
2026-04-26 21:39 28.84377 -67.63907 37065 ft 449 kts 173°
2026-04-26 21:40 28.78251 -67.62505 37064 ft 448 kts 173°
2026-04-26 21:40 28.72126 -67.61105 37064 ft 448 kts 173°
2026-04-26 21:41 28.66012 -67.59709 37064 ft 447 kts 173°
2026-04-26 21:41 28.59937 -67.58322 37064 ft 447 kts 173°
2026-04-26 21:42 28.53837 -67.56934 37065 ft 447 kts 173°
2026-04-26 21:42 28.47730 -67.55545 37058 ft 447 kts 173°
2026-04-26 21:43 28.41627 -67.54155 37054 ft 447 kts 173°
2026-04-26 21:43 28.35555 -67.52777 37058 ft 447 kts 173°
2026-04-26 21:44 28.29449 -67.51392 37054 ft 447 kts 173°
2026-04-26 21:44 28.23345 -67.50007 37054 ft 447 kts 173°
2026-04-26 21:45 28.17243 -67.48626 37056 ft 447 kts 173°
2026-04-26 21:45 28.11127 -67.47241 37054 ft 448 kts 173°
2026-04-26 21:46 28.05015 -67.45858 37055 ft 448 kts 173°
2026-04-26 21:46 27.98908 -67.44479 37059 ft 448 kts 173°
2026-04-26 21:47 27.92796 -67.43100 37056 ft 448 kts 173°
2026-04-26 21:47 27.86724 -67.41732 37053 ft 447 kts 174°
2026-04-26 21:48 27.80622 -67.40359 37055 ft 447 kts 174°
2026-04-26 21:48 27.74520 -67.38987 37046 ft 447 kts 174°
2026-04-26 21:49 27.68417 -67.37615 37049 ft 446 kts 174°
2026-04-26 21:49 27.62354 -67.36257 37044 ft 446 kts 174°
2026-04-26 21:50 27.57302 -67.35125 37046 ft 445 kts 174°
2026-04-26 21:50 27.50199 -67.33535 37048 ft 445 kts 174°
2026-04-26 21:51 27.44123 -67.32177 37050 ft 445 kts 174°
2026-04-26 21:51 27.38054 -67.30822 37046 ft 444 kts 174°
2026-04-26 21:52 27.31998 -67.29470 37042 ft 443 kts 174°
2026-04-26 21:52 27.25943 -67.28122 37048 ft 443 kts 174°
2026-04-26 21:53 27.19933 -67.26786 37047 ft 443 kts 174°
2026-04-26 21:53 27.13883 -67.25440 37046 ft 443 kts 174°
2026-04-26 21:54 27.07842 -67.24099 37044 ft 443 kts 175°
2026-04-26 21:54 27.01795 -67.22761 37033 ft 442 kts 175°
2026-04-26 21:55 26.95752 -67.21425 37030 ft 442 kts 175°
2026-04-26 21:55 26.89714 -67.20092 37028 ft 442 kts 175°
2026-04-26 21:56 26.83682 -67.18760 37027 ft 441 kts 175°
2026-04-26 21:56 26.77659 -67.17433 37027 ft 441 kts 175°
2026-04-26 21:57 26.71675 -67.16116 37031 ft 441 kts 175°
2026-04-26 21:57 26.65663 -67.14794 37023 ft 440 kts 175°
2026-04-26 21:58 26.59639 -67.13470 37027 ft 440 kts 175°
2026-04-26 21:58 26.53639 -67.12154 37023 ft 439 kts 175°
2026-04-26 21:59 26.47637 -67.10837 37017 ft 438 kts 175°
2026-04-26 21:59 26.41683 -67.09533 37022 ft 439 kts 175°
2026-04-26 22:00 26.35694 -67.08220 37020 ft 438 kts 175°
2026-04-26 22:00 26.29698 -67.06911 37019 ft 438 kts 176°
2026-04-26 22:01 26.23704 -67.05605 37019 ft 439 kts 176°
2026-04-26 22:01 26.17716 -67.04300 37017 ft 439 kts 176°
2026-04-26 22:02 26.12732 -67.03213 37018 ft 438 kts 176°
2026-04-26 22:02 26.05778 -67.01700 37019 ft 438 kts 176°
2026-04-26 22:03 25.99790 -67.00398 37018 ft 437 kts 176°
2026-04-26 22:03 25.93817 -66.99099 37021 ft 437 kts 177°
2026-04-26 22:04 25.88865 -66.98021 37006 ft 436 kts 177°
2026-04-26 22:04 25.81952 -66.96525 37008 ft 434 kts 177°
2026-04-26 22:05 25.76981 -66.95449 37010 ft 433 kts 177°
2026-04-26 22:05 25.71106 -66.94179 37008 ft 432 kts 177°
2026-04-26 22:06 25.65203 -66.92903 37010 ft 432 kts 178°
2026-04-26 22:06 25.59305 -66.91631 37009 ft 431 kts 178°
2026-04-26 22:07 25.53416 -66.90362 37009 ft 430 kts 178°
2026-04-26 22:07 25.47538 -66.89096 37010 ft 430 kts 178°
2026-04-26 22:08 25.41668 -66.87832 37010 ft 430 kts 178°
2026-04-26 22:08 25.35796 -66.86570 37009 ft 430 kts 178°
2026-04-26 22:09 25.29921 -66.85307 37013 ft 430 kts 178°
2026-04-26 22:09 25.24073 -66.84053 37010 ft 431 kts 178°
2026-04-26 22:10 25.18169 -66.82788 37009 ft 431 kts 178°
2026-04-26 22:10 25.12279 -66.81527 37010 ft 431 kts 178°
2026-04-26 22:11 25.06373 -66.80264 37011 ft 432 kts 178°
2026-04-26 22:11 25.00472 -66.79002 37009 ft 432 kts 178°
2026-04-26 22:12 24.94570 -66.77740 37013 ft 432 kts 178°
2026-04-26 22:12 24.88708 -66.76487 37007 ft 432 kts 179°
2026-04-26 22:13 24.82816 -66.75231 37009 ft 431 kts 179°
2026-04-26 22:13 24.76932 -66.73979 37013 ft 430 kts 179°
2026-04-26 22:14 24.71054 -66.72729 37009 ft 429 kts 179°
2026-04-26 22:14 24.65194 -66.71486 37010 ft 429 kts 179°
2026-04-26 22:15 24.59334 -66.70241 36999 ft 428 kts 179°
2026-04-26 22:15 24.53495 -66.69002 37000 ft 427 kts 179°
2026-04-26 22:16 24.47667 -66.67767 36999 ft 426 kts 180°
2026-04-26 22:16 24.41853 -66.66535 37000 ft 425 kts 180°
2026-04-26 22:17 24.36082 -66.65316 37002 ft 425 kts 180°
2026-04-26 22:17 24.30272 -66.64087 37005 ft 425 kts 180°
2026-04-26 22:18 24.24465 -66.62862 36999 ft 424 kts 180°
2026-04-26 22:18 24.18659 -66.61638 37004 ft 424 kts 180°
2026-04-26 22:19 24.12860 -66.60416 37001 ft 424 kts 180°
2026-04-26 22:19 24.07063 -66.59194 36999 ft 424 kts 180°
2026-04-26 22:20 24.01302 -66.57982 37000 ft 424 kts 180°
2026-04-26 22:20 23.95509 -66.56766 37001 ft 423 kts 180°
2026-04-26 22:21 23.89716 -66.55552 36999 ft 423 kts 180°
2026-04-26 22:21 23.83930 -66.54337 37001 ft 423 kts 180°
2026-04-26 22:22 23.78189 -66.53133 37000 ft 423 kts 180°
2026-04-26 22:22 23.72406 -66.51922 36992 ft 423 kts 180°
2026-04-26 22:23 23.66623 -66.50713 36991 ft 422 kts 180°
2026-04-26 22:23 23.60854 -66.49507 36989 ft 422 kts 180°
2026-04-26 22:24 23.55119 -66.48309 36991 ft 422 kts 180°
2026-04-26 22:24 23.49353 -66.47107 36992 ft 421 kts 180°
2026-04-26 22:25 23.43585 -66.45906 36990 ft 422 kts 180°
2026-04-26 22:25 23.37812 -66.44703 36992 ft 423 kts 180°
2026-04-26 22:26 23.32027 -66.43498 36992 ft 423 kts 180°
2026-04-26 22:26 23.26244 -66.42294 36989 ft 423 kts 180°
2026-04-26 22:27 23.20493 -66.41100 36991 ft 423 kts 180°
2026-04-26 22:27 23.14695 -66.39897 36994 ft 424 kts 180°
2026-04-26 22:28 23.08892 -66.38695 36988 ft 425 kts 180°
2026-04-26 22:28 23.03079 -66.37491 36983 ft 425 kts 180°
2026-04-26 22:29 22.97300 -66.36293 36975 ft 425 kts 180°
2026-04-26 22:29 22.91483 -66.35090 36983 ft 425 kts 180°
2026-04-26 22:30 22.85674 -66.33893 36981 ft 425 kts 180°
2026-04-26 22:30 22.79863 -66.32696 36978 ft 425 kts 180°
2026-04-26 22:31 22.74052 -66.31501 36982 ft 425 kts 180°
2026-04-26 22:31 22.68242 -66.30307 36986 ft 425 kts 180°
2026-04-26 22:32 22.62429 -66.29110 36978 ft 424 kts 180°
2026-04-26 22:32 22.56639 -66.27922 36983 ft 424 kts 180°
2026-04-26 22:33 22.47975 -66.26146 36981 ft 424 kts 180°
2026-04-26 22:34 22.42185 -66.24960 36980 ft 423 kts 180°
2026-04-26 22:34 22.36391 -66.23774 36982 ft 423 kts 180°
2026-04-26 22:35 22.30594 -66.22589 36981 ft 423 kts 180°
2026-04-26 22:35 22.24811 -66.21407 36984 ft 423 kts 180°
2026-04-26 22:36 22.19023 -66.20225 36981 ft 423 kts 180°
2026-04-26 22:36 22.13274 -66.19052 36981 ft 423 kts 180°
2026-04-26 22:37 22.07488 -66.17872 36983 ft 423 kts 180°
2026-04-26 22:37 22.01692 -66.16691 36981 ft 424 kts 180°
2026-04-26 22:38 21.95889 -66.15501 36980 ft 424 kts 180°
2026-04-26 22:38 21.90095 -66.14312 36982 ft 424 kts 180°
2026-04-26 22:39 21.84298 -66.13124 36982 ft 424 kts 180°
2026-04-26 22:39 21.78496 -66.11936 36970 ft 424 kts 180°
2026-04-26 22:40 21.72733 -66.10756 36974 ft 424 kts 180°
2026-04-26 22:40 21.66931 -66.09570 36972 ft 424 kts 180°
2026-04-26 22:41 21.61125 -66.08385 36963 ft 424 kts 180°
2026-04-26 22:41 21.55323 -66.07203 36968 ft 425 kts 180°
2026-04-26 22:42 21.49502 -66.05949 36958 ft 431 kts 174°
2026-04-26 22:42 21.46644 -66.04792 36972 ft 445 kts 165°
2026-04-26 22:42 21.43899 -66.03171 36966 ft 456 kts 157°
2026-04-26 22:42 21.41356 -66.01061 36976 ft 468 kts 149°
2026-04-26 22:43 21.38949 -65.98769 36977 ft 469 kts 148°
2026-04-26 22:43 21.34097 -65.94084 36989 ft 468 kts 148°
2026-04-26 22:44 21.29233 -65.89420 36984 ft 468 kts 148°
2026-04-26 22:44 21.24358 -65.84792 36981 ft 467 kts 148°
2026-04-26 22:45 21.19482 -65.80183 36983 ft 467 kts 148°
2026-04-26 22:45 21.14637 -65.75610 36977 ft 467 kts 148°
2026-04-26 22:46 21.09766 -65.71014 36980 ft 466 kts 148°
2026-04-26 22:46 21.04898 -65.66425 36983 ft 465 kts 148°
2026-04-26 22:47 21.00031 -65.61845 36983 ft 465 kts 148°
2026-04-26 22:47 20.95181 -65.57277 36982 ft 465 kts 148°
2026-04-26 22:48 20.90327 -65.52712 36981 ft 464 kts 148°
2026-04-26 22:48 20.85480 -65.48156 36984 ft 463 kts 148°
2026-04-26 22:49 20.80669 -65.43643 36985 ft 463 kts 148°
2026-04-26 22:49 20.75825 -65.39102 36982 ft 463 kts 148°
2026-04-26 22:50 20.70975 -65.34557 36985 ft 463 kts 148°
2026-04-26 22:50 20.66131 -65.30022 36979 ft 463 kts 148°
2026-04-26 22:51 20.61290 -65.25494 36984 ft 462 kts 148°
2026-04-26 22:51 20.56449 -65.20970 36980 ft 462 kts 148°
2026-04-26 22:52 20.52424 -65.17214 36981 ft 462 kts 148°
2026-04-26 22:52 20.47587 -65.12701 36982 ft 462 kts 148°
2026-04-26 22:53 20.42747 -65.08187 36982 ft 462 kts 148°
2026-04-26 22:53 20.37909 -65.03681 36980 ft 461 kts 148°
2026-04-26 22:54 20.33076 -64.99184 36978 ft 461 kts 148°
2026-04-26 22:54 20.28242 -64.94689 36990 ft 461 kts 147°
2026-04-26 22:55 20.23445 -64.90232 36995 ft 460 kts 147°
2026-04-26 22:55 20.18617 -64.85753 37002 ft 460 kts 147°
2026-04-26 22:56 20.13785 -64.81273 36997 ft 460 kts 147°
2026-04-26 22:56 20.08963 -64.76805 37001 ft 459 kts 147°
2026-04-26 22:57 20.04144 -64.72341 36998 ft 459 kts 147°
2026-04-26 22:57 19.99326 -64.67884 37003 ft 459 kts 147°
2026-04-26 22:58 19.94511 -64.63435 37002 ft 458 kts 147°
2026-04-26 22:58 19.89734 -64.59023 37007 ft 457 kts 147°
2026-04-26 22:59 19.84929 -64.54591 37009 ft 457 kts 147°
2026-04-26 22:59 19.80129 -64.50164 37008 ft 456 kts 147°
2026-04-26 23:00 19.75335 -64.45748 37000 ft 456 kts 147°
2026-04-26 23:00 19.70542 -64.41337 37001 ft 456 kts 147°
2026-04-26 23:01 19.65781 -64.36960 37000 ft 455 kts 147°
2026-04-26 23:01 19.60992 -64.32560 37001 ft 455 kts 147°
2026-04-26 23:02 19.56199 -64.28159 37000 ft 455 kts 147°
2026-04-26 23:02 19.51405 -64.23761 37000 ft 455 kts 147°
2026-04-26 23:03 19.46608 -64.19369 36996 ft 456 kts 147°
2026-04-26 23:03 19.41816 -64.14979 37001 ft 456 kts 147°
2026-04-26 23:04 19.37049 -64.10614 37002 ft 456 kts 147°
2026-04-26 23:04 19.32246 -64.06222 36999 ft 456 kts 147°
2026-04-26 23:05 19.27441 -64.01831 36997 ft 456 kts 147°
2026-04-26 23:05 19.22634 -63.97444 37001 ft 456 kts 146°
2026-04-26 23:06 19.17815 -63.93047 37000 ft 456 kts 146°
2026-04-26 23:06 19.13002 -63.88660 37001 ft 457 kts 146°
2026-04-26 23:07 19.08223 -63.84308 37003 ft 456 kts 146°
2026-04-26 23:07 19.03410 -63.79928 36999 ft 456 kts 146°
2026-04-26 23:08 18.98597 -63.75551 36997 ft 455 kts 146°
2026-04-26 23:08 18.93790 -63.71183 37001 ft 455 kts 146°
2026-04-26 23:09 18.88983 -63.66820 37002 ft 455 kts 146°
2026-04-26 23:09 18.84182 -63.62465 37000 ft 455 kts 146°
2026-04-26 23:10 18.79412 -63.58142 37002 ft 454 kts 146°
2026-04-26 23:10 18.74613 -63.53796 36998 ft 454 kts 146°
2026-04-26 23:11 18.69811 -63.49448 37002 ft 455 kts 146°
2026-04-26 23:11 18.65002 -63.45098 36990 ft 455 kts 146°
2026-04-26 23:12 18.60194 -63.40755 36994 ft 455 kts 146°
2026-04-26 23:12 18.55415 -63.36439 36992 ft 455 kts 145°
2026-04-26 23:13 18.50599 -63.32094 36887 ft 457 kts 146°
2026-04-26 23:13 18.48169 -63.29905 36356 ft 461 kts 145°
2026-04-26 23:13 18.45732 -63.27708 35741 ft 459 kts 145°
2026-04-26 23:13 18.43308 -63.25522 35056 ft 459 kts 145°
2026-04-26 23:14 18.40875 -63.23331 34356 ft 460 kts 145°
2026-04-26 23:14 18.38434 -63.21134 33636 ft 462 kts 145°
2026-04-26 23:14 18.35980 -63.18927 32895 ft 464 kts 145°
2026-04-26 23:14 18.33520 -63.16714 32123 ft 466 kts 145°
2026-04-26 23:15 18.31081 -63.14520 31378 ft 467 kts 144°
2026-04-26 23:15 18.28626 -63.12312 30824 ft 463 kts 144°
2026-04-26 23:15 18.26186 -63.10116 30238 ft 460 kts 144°
2026-04-26 23:15 18.23761 -63.07934 29682 ft 456 kts 144°
2026-04-26 23:16 18.21358 -63.05775 29105 ft 452 kts 144°
2026-04-26 23:16 18.18979 -63.03639 28532 ft 448 kts 144°
2026-04-26 23:16 18.16615 -63.01518 27959 ft 444 kts 144°
2026-04-26 23:16 18.14271 -62.99415 27391 ft 441 kts 144°
2026-04-26 23:17 18.11948 -62.97333 26829 ft 437 kts 144°
2026-04-26 23:17 18.09643 -62.95268 26269 ft 433 kts 144°
2026-04-26 23:17 18.07359 -62.93221 25711 ft 430 kts 144°
2026-04-26 23:17 18.05092 -62.91192 25162 ft 426 kts 144°
2026-04-26 23:18 18.02842 -62.89177 24610 ft 423 kts 144°
2026-04-26 23:18 18.00609 -62.87179 24063 ft 420 kts 144°
2026-04-26 23:18 17.98417 -62.85218 23527 ft 417 kts 144°
2026-04-26 23:18 17.96218 -62.83252 22985 ft 413 kts 143°
2026-04-26 23:19 17.94038 -62.81304 22448 ft 410 kts 143°
2026-04-26 23:19 17.91870 -62.79366 21914 ft 407 kts 143°
2026-04-26 23:19 17.89722 -62.77446 21374 ft 405 kts 143°
2026-04-26 23:19 17.87585 -62.75538 20838 ft 402 kts 143°
2026-04-26 23:20 17.85461 -62.73641 20304 ft 399 kts 143°
2026-04-26 23:20 17.83354 -62.71761 19773 ft 396 kts 143°
2026-04-26 23:20 17.81266 -62.69898 19247 ft 394 kts 143°
2026-04-26 23:20 17.79184 -62.68040 18721 ft 391 kts 142°
2026-04-26 23:21 17.77119 -62.66199 18198 ft 389 kts 142°
2026-04-26 23:21 17.75062 -62.64365 17676 ft 386 kts 142°
2026-04-26 23:21 17.73021 -62.62545 17162 ft 384 kts 142°
2026-04-26 23:21 17.70995 -62.60740 16645 ft 381 kts 142°
2026-04-26 23:22 17.68981 -62.58945 16133 ft 379 kts 142°
2026-04-26 23:22 17.66977 -62.57163 15625 ft 377 kts 142°
2026-04-26 23:22 17.64984 -62.55390 15113 ft 375 kts 141°
2026-04-26 23:22 17.63060 -62.53547 14603 ft 373 kts 138°
2026-04-26 23:23 17.61205 -62.51667 14099 ft 370 kts 137°
2026-04-26 23:23 17.59374 -62.49782 13596 ft 367 kts 137°
2026-04-26 23:23 17.57561 -62.47913 13089 ft 365 kts 137°
2026-04-26 23:23 17.55752 -62.46058 12591 ft 362 kts 137°
2026-04-26 23:24 17.53982 -62.44250 12100 ft 359 kts 137°
2026-04-26 23:24 17.52198 -62.42434 11596 ft 356 kts 137°
2026-04-26 23:24 17.50423 -62.40632 11105 ft 353 kts 137°
2026-04-26 23:24 17.48665 -62.38850 10765 ft 346 kts 137°
2026-04-26 23:25 17.46967 -62.37128 10604 ft 334 kts 137°
2026-04-26 23:25 17.45325 -62.35466 10445 ft 323 kts 137°
2026-04-26 23:25 17.43733 -62.33855 10298 ft 313 kts 137°
2026-04-26 23:25 17.42194 -62.32299 10167 ft 303 kts 137°
2026-04-26 23:26 17.40701 -62.30788 10034 ft 293 kts 137°
2026-04-26 23:26 17.39250 -62.29321 9778 ft 289 kts 137°
2026-04-26 23:26 17.37812 -62.27867 9483 ft 286 kts 137°
2026-04-26 23:26 17.36386 -62.26428 9187 ft 283 kts 137°
2026-04-26 23:27 17.34970 -62.25000 8882 ft 281 kts 137°
2026-04-26 23:27 17.33566 -62.23582 8576 ft 280 kts 137°
2026-04-26 23:27 17.32171 -62.22173 8278 ft 278 kts 137°
2026-04-26 23:27 17.31252 -62.21245 8076 ft 277 kts 137°
2026-04-26 23:28 17.29405 -62.19381 7663 ft 274 kts 137°
2026-04-26 23:28 17.28035 -62.17998 7362 ft 273 kts 137°
2026-04-26 23:28 17.26676 -62.16627 7062 ft 271 kts 137°
2026-04-26 23:28 17.25346 -62.15284 6765 ft 267 kts 137°
2026-04-26 23:29 17.24008 -62.13936 6468 ft 266 kts 137°
2026-04-26 23:29 17.22677 -62.12596 6177 ft 265 kts 137°
2026-04-26 23:29 17.21354 -62.11261 5881 ft 263 kts 137°
2026-04-26 23:29 17.20039 -62.09936 5598 ft 261 kts 137°
2026-04-26 23:30 17.18741 -62.08624 5314 ft 260 kts 137°
2026-04-26 23:30 17.17446 -62.07323 5019 ft 258 kts 137°
2026-04-26 23:30 17.16159 -62.06029 4722 ft 255 kts 137°
2026-04-26 23:30 17.14887 -62.04744 4438 ft 253 kts 137°
2026-04-26 23:31 17.13624 -62.03479 4202 ft 249 kts 137°
2026-04-26 23:31 17.12395 -62.02246 4086 ft 240 kts 138°
2026-04-26 23:31 17.11100 -62.01198 3990 ft 232 kts 147°
2026-04-26 23:31 17.09743 -62.00343 3916 ft 223 kts 149°
2026-04-26 23:32 17.08434 -61.99525 3823 ft 215 kts 148°
2026-04-26 23:32 17.07181 -61.98736 3736 ft 206 kts 149°
2026-04-26 23:32 17.05992 -61.97975 3572 ft 203 kts 148°
2026-04-26 23:32 17.04895 -61.97092 3394 ft 199 kts 126°
2026-04-26 23:33 17.04473 -61.95734 3210 ft 200 kts 93°
2026-04-26 23:33 17.04765 -61.94336 3009 ft 199 kts 67°
2026-04-26 23:33 17.05466 -61.93103 2788 ft 196 kts 62°
2026-04-26 23:33 17.06181 -61.91903 2564 ft 192 kts 62°
2026-04-26 23:34 17.06881 -61.90728 2352 ft 189 kts 61°
2026-04-26 23:34 17.07561 -61.89585 2113 ft 180 kts 61°
2026-04-26 23:34 17.08204 -61.88502 1884 ft 171 kts 60°
2026-04-26 23:34 17.08814 -61.87478 1694 ft 158 kts 60°
2026-04-26 23:35 17.09375 -61.86533 1471 ft 150 kts 60°
2026-04-26 23:35 17.09914 -61.85616 1282 ft 149 kts 60°
2026-04-26 23:35 17.10461 -61.84689 1143 ft 149 kts 60°
2026-04-26 23:35 17.11009 -61.83757 940 ft 152 kts 59°
2026-04-26 23:36 17.11575 -61.82810 720 ft 153 kts 58°
2026-04-26 23:36 17.12143 -61.81862 464 ft 154 kts 59°
2026-04-26 23:36 17.12701 -61.80924 238 ft 149 kts 59°
2026-04-26 23:36 17.13231 -61.80021 71 ft 143 kts 59°
2026-04-26 23:37 17.13686 -61.79246 64 ft 99 kts 58°
2026-04-26 23:37 17.13901 -61.78878 62 ft 38 kts 58°
2026-04-26 23:37 17.14022 -61.78675 64 ft 19 kts 54°
2026-04-26 23:37 17.14099 -61.78705 61 ft 13 kts 279°
2026-04-26 23:38 17.14104 -61.78754 65 ft 4 kts 276°
2026-04-26 23:38 17.14107 -61.78789 63 ft 5 kts 274°
2026-04-26 23:38 17.14113 -61.78842 57 ft 11 kts 290°
2026-04-26 23:38 17.14162 -61.78886 58 ft 8 kts 315°
2026-04-26 23:39 17.14171 -61.78924 62 ft 2 kts 280°
2026-04-26 23:39 17.14171 -61.78927 62 ft 0 kts 281°